{"data":{"norad_id":68408,"epoch":"2026-05-25T03:27:54.146016Z","epoch_age_seconds":73225,"freshness":"FRESH","line1":"1 68408U 26065A   26145.14437669  .00002696  00000+0  13384-3 0  9997","line2":"2 68408  97.4050  26.1401 0018304  85.4312 274.9013 15.18394588  8765","mean_motion":15.18394588,"eccentricity":0.0018304,"inclination_deg":97.405,"raan_deg":26.1401,"arg_perigee_deg":85.4312,"mean_anomaly_deg":274.9013,"bstar":0.00013384,"rev_number":876,"period_min":94.837008204616,"perigee_km":498.08277317829,"apogee_km":523.30139869608,"semimajor_km":6888.8290859372,"source":"CELESTRAK","updated_at":"2026-05-25T13:38:07.808677Z"}}